SCP
-0 -0 0 0 0 0 0 0 0 0 0 0 0 0 0 0 0 0 0 0 0 0 0 0 0 0 0 0 0 0 0 0
0 0 0 0 0 0 0 0 0 0 0 0 0 0 0 0 0 0 0 0 0 0 0 0 0 0 0 0 0 0 0 0
0 0 0 0 0 0 0 0 0 0 0 0 0 0 -0 0 0 0 0 0 -0 -0 -0 0 0 0 0 0 0 0 0 0
0 0 0 0 0 0 0 0 0 0 0 0 0 -0 0 0 -0 -0 -0 -0 -0 -0 -0 -0 0 0 0 0 0 0 0 0
0 0 0 0 0 0 0 0 0 0 0 0 0 -0 -0 0 -0 -0 -0 -0 -0 -0 -0 -0 -0 0 0 0 0 0 0 0
0 0 0 0 0 0 0 0 0 0 0 0 0 0 -0 -0 -0 -0 -0 -0 -0 -0 -0 -0 -0 -0 -0 0 0 0 0 0
0 0 0 0 0 0 0 0 0 0 0 0 0 0 0 -0 -0 -0 -0 -0 -0 -0 -0 -0 -0 -0 -0 0 0 0 0 0
0 0 0 0 0 0 0 0 0 0 0 0 0 0 0 -0 -0 -0 -0 -0 -0 -0 -0 -0 -0 -0 -0 0 0 0 0 0
0 0 0 0 0 0 0 0 0 0 0 0 0 0 0 -0 -0 -0 -0 -0 -0 -0 -0 0 0 0 0 0 0 0 0 0
0 0 0 0 0 0 0 0 0 0 0 0 0 0 0 0 0 -0 -0 -0 -0 0 0 0 0 0 0 0 0 0 0 0
0 0 0 0 0 0 0 0 0 0 0 0 0 0 0 -0 -0 -0 -0 0 0 0 0 0 0 0 0 0 0 0 0 0
0 0 0 0 0 0 0 0 0 0 0 0 0 0 0 0 0 0 0 0 0 0 0 0 0 0 0 0 0 0 0 0
0 0 0 0 0 0 0 0 0 0 0 0 0 0 0 0 0 0 0 0 0 0 0 0 0 0 0 0 0 0 0 0
0 0 0 0 0 0 0 0 0 0 0 0 0 0 0 0 0 0 0 0 0 0 0 0 0 0 0 0 0 0 0 0
0 0 0 0 0 0 0 0 0 0 0 0 0 0 0 0 0 0 0 0 0 0 0 0 0 0 0 0 0 0 0 0
0 0 0 0 0 0 0 0 0 0 0 0 0 0 0 0 0 0 0 0 0 0 0 0 0 0 0 0 0 0 0 0
0 0 0 -0 0 0 0 0 0 0 0 0 0 0 0 0 0 0 0 0 0 0 0 0 0 0 0 0 0 0 0 0
-0 0 0 0 0 0 0 0 0 0 0 0 0 0 0 0 0 0 0 0 0 0 0 0 0 0 0 0 0 0 0 0
0 0 0 0 0 0 0 0 0 0 0 0 0 0 0 0 0 0 0 0 0 0 0 0 0 0 0 0 0 0 0 0
0 0 0 0 0 0 0 0 0 0 0 0 0 0 0 0 0 0 0 0 0 0 0 0 0 0 0 0 0 0 0 0
Wind_Speed_500mb
54 48 40 34 30 26 27 33 42 59 69 74 73 71 70 66 66 68 72 69 68 66 62 58 63 63 60 60 51 42 41 40
47 43 41 33 35 37 40 46 51 71 87 87 84 82 85 87 90 90 88 85 85 82 79 73 66 60 59 58 52 47 48 45
49 43 42 42 48 52 57 57 62 81 94 101 101 99 102 102 99 93 92 89 87 79 74 71 68 65 64 64 60 53 49 45
49 51 49 52 60 60 63 60 74 94 118 115 112 110 109 104 100 98 91 88 82 80 81 78 72 67 63 61 57 51 48 44
54 54 56 57 63 66 59 65 79 108 120 119 112 109 105 104 97 93 90 88 84 81 77 74 68 67 61 57 52 49 49 46
56 53 59 60 60 55 58 67 93 114 113 115 110 107 103 99 96 91 86 82 77 75 74 71 67 61 56 52 49 49 48 46
50 53 61 48 41 50 70 84 99 109 109 103 100 95 90 88 86 81 78 74 68 69 66 64 62 54 50 46 46 45 46 47
53 49 41 45 53 68 81 88 93 96 92 87 85 83 80 78 74 71 69 63 62 63 59 59 56 47 46 42 44 46 49 50
41 39 44 54 67 74 78 82 82 83 81 76 73 74 72 69 68 65 61 59 57 55 53 50 49 42 43 44 46 46 47 48
36 44 52 60 64 69 73 73 73 74 70 66 64 64 61 60 58 55 50 50 49 48 44 44 44 40 35 36 40 43 45 48
37 41 47 54 60 62 67 65 67 62 60 56 54 52 52 51 48 45 43 41 37 36 41 41 38 29 30 36 40 46 53 54
35 41 44 44 47 53 54 58 55 51 49 48 46 45 44 42 38 35 35 34 31 29 30 32 30 31 37 40 42 48 53 59
31 36 38 36 36 47 48 49 44 41 39 39 38 38 35 30 30 29 28 28 28 28 25 24 29 35 35 37 49 55 59 61
29 32 34 33 31 38 43 38 34 31 32 30 29 29 28 24 25 22 21 22 20 20 23 23 24 26 35 45 51 57 60 64
30 31 34 33 32 32 35 30 24 22 24 24 19 18 17 17 19 18 19 22 21 21 25 26 29 37 44 50 53 54 59 60
32 33 33 33 30 29 27 24 16 14 16 15 15 14 14 15 17 19 19 19 22 24 28 31 35 39 43 47 51 56 61 63
36 33 31 30 26 24 22 21 14 11 12 11 11 11 12 12 13 14 18 24 28 32 36 37 40 43 47 51 54 57 63 66
34 33 31 29 28 25 22 19 14 9 6 4 6 10 13 17 20 23 24 26 28 30 33 36 40 42 45 47 49 52 59 63
40 36 33 30 27 25 22 20 17 12 6 1 4 8 11 14 16 18 18 18 20 26 30 32 37 41 45 47 48 50 50 58
44 42 40 38 34 31 29 25 20 15 12 11 10 10 13 16 18 19 21 24 26 27 30 36 37 43 47 50 53 56 59 59
Wind_Direction_500mb
31 40 52 61 69 85 109 116 123 129 131 132 127 125 125 125 122 123 120 119 119 119 119 120 119 119 118 114 108 107 97 87
37 49 62 72 81 94 105 104 111 119 124 124 120 120 118 116 115 113 114 113 112 110 108 106 104 104 102 99 95 90 92 95
48 59 71 80 84 94 100 95 98 111 117 113 113 112 110 108 107 109 108 107 106 105 104 101 98 99 99 99 100 97 94 88
55 62 70 79 89 95 95 94 96 104 109 109 110 109 108 108 108 107 107 104 104 105 102 101 100 98 94 94 91 88 80 73
64 66 71 84 88 91 87 89 99 107 110 110 110 109 108 108 108 105 105 105 104 100 98 95 91 88 86 82 79 74 67 56
68 71 84 90 89 88 88 95 103 106 107 106 108 107 107 106 104 105 104 101 100 99 94 90 86 81 77 74 69 62 55 46
79 87 88 89 88 93 103 107 107 104 103 105 106 106 106 106 104 103 101 100 97 94 91 86 81 77 72 65 59 51 44 37
81 90 99 101 106 106 105 104 101 101 102 103 103 103 102 101 100 97 96 98 94 90 86 82 77 71 65 55 48 40 34 28
90 96 101 104 104 105 104 102 101 103 104 105 105 103 101 99 98 98 96 92 88 85 84 83 77 67 57 46 38 31 25 20
100 106 109 110 110 109 108 108 107 105 104 103 101 101 100 99 96 93 94 92 89 85 80 75 71 61 54 43 35 27 21 14
113 113 114 114 114 114 109 108 103 104 103 102 103 101 99 95 93 90 87 89 88 84 71 64 59 54 44 34 27 20 17 9
119 120 115 116 117 111 109 104 102 104 106 109 106 100 97 95 93 91 87 84 81 78 72 60 47 36 30 21 11 13 7 3
131 124 119 120 122 116 112 108 111 112 111 106 102 99 95 98 98 87 76 69 66 56 51 42 29 23 16 9 9 5 4 359
145 137 133 130 125 119 111 114 115 115 111 109 104 98 93 83 78 74 67 57 54 42 34 25 15 5 7 7 3 359 357 354
157 149 142 138 136 129 123 123 124 120 107 100 98 97 96 88 77 65 57 46 38 31 23 12 359 358 358 354 349 347 344 345
164 162 157 150 148 135 129 122 129 121 115 112 106 96 74 55 43 33 27 21 15 12 5 355 351 351 345 340 338 340 337 339
171 169 163 155 156 149 144 137 141 135 126 113 90 69 52 40 28 16 13 7 1 358 353 350 345 341 338 335 335 336 334 335
180 177 181 177 177 172 166 157 155 148 122 89 51 32 21 12 4 354 346 341 339 338 336 336 335 332 327 325 327 328 327 330
191 191 191 192 189 189 189 183 181 180 190 189 351 341 335 331 330 328 324 324 327 325 324 328 328 325 324 323 324 325 329 328
200 201 201 201 200 203 206 205 202 206 221 240 258 279 293 299 305 315 323 329 330 328 325 324 329 331 330 327 326 328 330 327
Wind_Speed_850mb
54 48 40 34 30 26 27 33 42 59 69 74 73 71 70 66 66 68 72 69 68 66 62 58 63 63 60 60 51 42 41 40
47 43 41 33 35 37 40 46 51 71 87 87 84 82 85 87 90 90 88 85 85 82 79 73 66 60 59 58 52 47 48 45
49 43 42 42 48 52 57 57 62 81 94 101 101 99 102 102 99 93 92 89 87 79 74 71 68 65 64 64 60 53 49 45
49 51 49 52 60 60 63 60 74 94 118 115 112 110 109 104 100 98 91 88 82 80 81 78 72 67 63 61 57 51 48 44
54 54 56 57 63 66 59 65 79 108 120 119 112 109 105 104 97 93 90 88 84 81 77 74 68 67 61 57 52 49 49 46
56 53 59 60 60 55 58 67 93 114 113 115 110 107 103 99 96 91 86 82 77 75 74 71 67 61 56 52 49 49 48 46
50 53 61 48 41 50 70 84 99 109 109 103 100 95 90 88 86 81 78 74 68 69 66 64 62 54 50 46 46 45 46 47
53 49 41 45 53 68 81 88 93 96 92 87 85 83 80 78 74 71 69 63 62 63 59 59 56 47 46 42 44 46 49 50
41 39 44 54 67 74 78 82 82 83 81 76 73 74 72 69 68 65 61 59 57 55 53 50 49 42 43 44 46 46 47 48
36 44 52 60 64 69 73 73 73 74 70 66 64 64 61 60 58 55 50 50 49 48 44 44 44 40 35 36 40 43 45 48
37 41 47 54 60 62 67 65 67 62 60 56 54 52 52 51 48 45 43 41 37 36 41 41 38 29 30 36 40 46 53 54
35 41 44 44 47 53 54 58 55 51 49 48 46 45 44 42 38 35 35 34 31 29 30 32 30 31 37 40 42 48 53 59
31 36 38 36 36 47 48 49 44 41 39 39 38 38 35 30 30 29 28 28 28 28 25 24 29 35 35 37 49 55 59 61
29 32 34 33 31 38 43 38 34 31 32 30 29 29 28 24 25 22 21 22 20 20 23 23 24 26 35 45 51 57 60 64
30 31 34 33 32 32 35 30 24 22 24 24 19 18 17 17 19 18 19 22 21 21 25 26 29 37 44 50 53 54 59 60
32 33 33 33 30 29 27 24 16 14 16 15 15 14 14 15 17 19 19 19 22 24 28 31 35 39 43 47 51 56 61 63
36 33 31 30 26 24 22 21 14 11 12 11 11 11 12 12 13 14 18 24 28 32 36 37 40 43 47 51 54 57 63 66
34 33 31 29 28 25 22 19 14 9 6 4 6 10 13 17 20 23 24 26 28 30 33 36 40 42 45 47 49 52 59 63
40 36 33 30 27 25 22 20 17 12 6 1 4 8 11 14 16 18 18 18 20 26 30 32 37 41 45 47 48 50 50 58
44 42 40 38 34 31 29 25 20 15 12 11 10 10 13 16 18 19 21 24 26 27 30 36 37 43 47 50 53 56 59 59
Wind_Direction_850mb
31 40 52 61 69 85 109 116 123 129 131 132 127 125 125 125 122 123 120 119 119 119 119 120 119 119 118 114 108 107 97 87
37 49 62 72 81 94 105 104 111 119 124 124 120 120 118 116 115 113 114 113 112 110 108 106 104 104 102 99 95 90 92 95
48 59 71 80 84 94 100 95 98 111 117 113 113 112 110 108 107 109 108 107 106 105 104 101 98 99 99 99 100 97 94 88
55 62 70 79 89 95 95 94 96 104 109 109 110 109 108 108 108 107 107 104 104 105 102 101 100 98 94 94 91 88 80 73
64 66 71 84 88 91 87 89 99 107 110 110 110 109 108 108 108 105 105 105 104 100 98 95 91 88 86 82 79 74 67 56
68 71 84 90 89 88 88 95 103 106 107 106 108 107 107 106 104 105 104 101 100 99 94 90 86 81 77 74 69 62 55 46
79 87 88 89 88 93 103 107 107 104 103 105 106 106 106 106 104 103 101 100 97 94 91 86 81 77 72 65 59 51 44 37
81 90 99 101 106 106 105 104 101 101 102 103 103 103 102 101 100 97 96 98 94 90 86 82 77 71 65 55 48 40 34 28
90 96 101 104 104 105 104 102 101 103 104 105 105 103 101 99 98 98 96 92 88 85 84 83 77 67 57 46 38 31 25 20
100 106 109 110 110 109 108 108 107 105 104 103 101 101 100 99 96 93 94 92 89 85 80 75 71 61 54 43 35 27 21 14
113 113 114 114 114 114 109 108 103 104 103 102 103 101 99 95 93 90 87 89 88 84 71 64 59 54 44 34 27 20 17 9
119 120 115 116 117 111 109 104 102 104 106 109 106 100 97 95 93 91 87 84 81 78 72 60 47 36 30 21 11 13 7 3
131 124 119 120 122 116 112 108 111 112 111 106 102 99 95 98 98 87 76 69 66 56 51 42 29 23 16 9 9 5 4 359
145 137 133 130 125 119 111 114 115 115 111 109 104 98 93 83 78 74 67 57 54 42 34 25 15 5 7 7 3 359 357 354
157 149 142 138 136 129 123 123 124 120 107 100 98 97 96 88 77 65 57 46 38 31 23 12 359 358 358 354 349 347 344 345
164 162 157 150 148 135 129 122 129 121 115 112 106 96 74 55 43 33 27 21 15 12 5 355 351 351 345 340 338 340 337 339
171 169 163 155 156 149 144 137 141 135 126 113 90 69 52 40 28 16 13 7 1 358 353 350 345 341 338 335 335 336 334 335
180 177 181 177 177 172 166 157 155 148 122 89 51 32 21 12 4 354 346 341 339 338 336 336 335 332 327 325 327 328 327 330
191 191 191 192 189 189 189 183 181 180 190 189 351 341 335 331 330 328 324 324 327 325 324 328 328 325 324 323 324 325 329 328
200 201 201 201 200 203 206 205 202 206 221 240 258 279 293 299 305 315 323 329 330 328 325 324 329 331 330 327 326 328 330 327